Regional Weather Roundup
Issued by NWS

Home | Current Version | Previous Version | Graphics & Text | Print | Product List | Glossary On
Versions: 1 2 3 4 5 6 7 8 9 10 11 12 13 14 15 16 17 18 19 20 21 22 23 24 25 26 27 28 29 30 31 32 33 34 35 36 37 38 39 40 41 42 43 44 45 46 47 48 49 50
000
ASUS43 KIND 282159
RWRIN

WEATHER ROUNDUP FOR INDIANA
NATIONAL WEATHER SERVICE INDIANAPOLIS IN
600 PM EDT SAT MAY 28 2016

NOTE: "FAIR" INDICATES FEW OR NO CLOUDS BELOW 12,000 FEET WITH NO
SIGNIFICANT WEATHER AND/OR OBSTRUCTIONS TO VISIBILITY.

* - STATION DOES NOT REPORT WEATHER SUCH AS PRECIPITATION OR FOG.

+ - STATION NOT QUALITY CONTROLLED BY THE NATIONAL WEATHER SERVICE.
    USE DATA WITH CAUTION...ESPECIALLY DEWPOINT AND RELATIVE
    HUMIDITY OBSERVATIONS.

INZ001>003-010>013-019-020-282300-
NORTHWEST INDIANA

CITY           SKY/WX    TMP DP  RH WIND       PRES   REMARKS
GARY /AIRPORT/ MOSUNNY   82  72  69 S9        29.92F
RENSSELAER +   MOSUNNY   82  59  44 S18G28    29.95F

$$

LMZ046-743>745-282300-
SOUTHERN LAKE MICHIGAN

STATION/POSITION TIME  TEMP    WIND        PRES    WAVE
                       AIR SEA DIR/SP/G            HT
                 (UTC) (F)     (DEG/KT/KT) (MB)    (FT)
BURNS HARBOR     2100   78     190/ 20     1013.9S
MICHIGAN CITY    2100   78     180/ 15/ 19   N/A
5NW MICH CITY    2100   71 58  200/ 12/ 17   N/A     2

$$

INZ004-005-014>016-021>024-282300-
NORTH CENTRAL INDIANA

CITY           SKY/WX    TMP DP  RH WIND       PRES   REMARKS
ELKHART        CLOUDY    86  66  51 SW10      29.97S
GOSHEN         PTSUNNY   82  57  42 SW18      29.97S
SOUTH BEND     CLOUDY    83  61  47 SW18      29.96S

$$

INZ006>009-017-018-025>027-282300-
NORTHEAST INDIANA

CITY           SKY/WX    TMP DP  RH WIND       PRES   REMARKS
ANGOLA *+        N/A     86  59  39 S14       29.98S
FORT WAYNE     CLOUDY    84  59  42 S16       30.00S

$$

INZ028-029-035-036-043>045-051>053-282300-
WEST CENTRAL INDIANA

CITY           SKY/WX    TMP DP  RH WIND       PRES   REMARKS
CRAWFORDSVL +  MOSUNNY   78  65  64 S15       30.00S
GREENCASTLE +  PTSUNNY   73  72  94 S7        30.02S
LAFAYETTE      CLOUDY    82  62  50 S13G20    29.97S
TERRE HAUTE    PTSUNNY   83  60  45 S21G33    29.99S

$$

INZ030>032-037>040-046>048-054>057-064-065-282300-
CENTRAL INDIANA

CITY           SKY/WX    TMP DP  RH WIND       PRES   REMARKS
INDIANAPOLIS   CLOUDY    79  65  62 S14       30.01R
-EAGLE CREEK   CLOUDY    79  64  60 S10G20    30.02R
KOKOMO *+      PTSUNNY   75  63  64 SW15      30.01R
SHELBYVILLE    CLOUDY    80  66  62 S12       30.03S

$$

INZ033-034-041-042-049-050-058-059-282300-
EAST CENTRAL INDIANA

CITY           SKY/WX    TMP DP  RH WIND       PRES   REMARKS
MUNCIE         LGT RAIN  76  64  66 S16G29    30.05R

$$

INZ060-061-067>069-081>083-085>088-282300-
SOUTHWEST INDIANA

CITY           SKY/WX    TMP DP  RH WIND       PRES   REMARKS
EVANSVILLE     CLOUDY    82  65  56 S17G25    30.02S
HUNTINGBURG *+ CLOUDY    79  64  61 S18       30.04S

$$

INZ062-063-066-070>080-084-089>092-282300-
SOUTH CENTRAL AND SOUTHEAST INDIANA

CITY           SKY/WX    TMP DP  RH WIND       PRES   REMARKS
BLOOMINGTON    CLOUDY    78  65  63 S13G18    30.04R
MADISON *+     CLOUDY    77  64  65 CALM      30.08S
SEYMOUR +      DRIZZLE   77  68  73 S8        30.05R

$$





USA.gov is the U.S. government's official web portal to all federal, state and local government web resources and services.